Temperature
21 21 20 20 19 19 20 21 22 22 23 23 23 24 24 24 23 20 20 21 22 21 20 20 20 20 20 20 20 20 20 19 19 19 19 19 19 19 19 19 19 19 19 19 19 19 19 19 19
21 21 20 19 19 19 20 22 22 22 22 22 23 24 24 22 20 19 20 21 22 21 21 20 20 20 20 20 20 20 20 19 19 19 19 19 19 19 19 19 19 19 19 19 19 19 19 19 19
21 21 20 18 19 20 21 22 22 22 22 21 22 23 24 22 20 20 21 21 21 21 21 20 20 20 20 20 20 20 20 19 19 19 19 19 19 19 19 19 19 19 19 19 19 19 19 19 19
21 20 20 19 20 22 22 22 22 22 21 21 22 23 23 22 22 21 21 22 22 21 21 21 21 20 20 20 20 20 20 19 19 19 19 19 19 19 19 19 19 19 19 19 19 19 19 19 19
21 21 19 19 21 23 24 23 22 21 20 20 21 22 22 22 22 22 22 22 22 21 21 21 21 21 20 20 20 20 19 19 19 19 19 19 19 19 19 19 19 18 18 18 19 19 19 19 19
21 20 20 20 23 25 23 22 21 21 19 19 20 21 21 21 22 22 22 22 22 22 21 21 21 21 20 20 20 20 19 19 19 19 19 19 18 18 18 18 18 18 18 18 18 19 19 19 19
21 20 21 22 23 24 23 22 21 20 19 19 20 20 21 20 21 21 22 22 22 22 21 21 21 20 20 20 20 20 19 19 19 19 19 18 18 18 18 18 18 18 18 18 18 18 18 19 19
23 20 21 22 24 24 22 21 20 20 19 20 20 20 21 20 20 21 21 21 21 21 21 21 20 20 20 20 19 19 19 19 19 19 18 18 18 18 18 18 18 18 18 18 18 18 18 18 18
24 20 20 22 24 23 22 21 20 19 19 19 20 21 21 21 20 20 20 20 21 21 20 20 20 20 19 19 19 19 19 19 18 18 18 18 18 18 18 18 18 18 18 18 18 18 18 18 18
24 20 22 24 25 23 22 21 20 19 19 19 20 21 22 21 20 20 20 20 20 20 20 20 20 19 19 19 19 19 19 18 18 18 18 18 18 18 17 17 17 17 17 17 17 17 17 18 18
24 22 24 25 24 23 21 21 20 20 19 19 20 21 21 21 20 20 20 20 20 20 20 19 20 19 19 19 19 19 18 18 18 18 18 18 18 17 17 17 17 17 17 17 17 17 17 17 17
25 25 25 24 24 22 21 20 19 19 19 20 21 21 21 21 20 20 20 20 20 20 19 19 19 19 19 19 19 18 18 18 18 18 18 18 17 17 17 17 17 17 17 17 17 17 17 17 17
25 25 25 24 23 22 21 20 19 18 19 20 20 20 20 20 21 20 20 20 20 20 20 19 19 19 19 19 18 18 18 18 18 18 18 17 17 17 17 16 16 16 16 16 16 16 16 16 16
25 25 24 24 23 22 21 19 19 18 19 19 19 19 19 20 20 20 20 20 20 20 20 19 19 19 19 19 18 18 18 18 18 17 17 17 17 16 16 16 16 16 15 15 16 16 16 16 16
25 24 23 23 23 22 21 19 19 18 19 19 19 19 19 19 19 20 20 20 20 20 20 19 19 19 19 18 18 18 18 18 17 17 17 17 16 16 16 16 15 15 15 15 15 15 15 15 15
24 22 22 22 22 22 21 19 18 18 18 18 18 18 18 19 19 20 20 20 20 20 20 19 19 19 18 18 18 18 18 17 17 17 16 16 16 16 15 15 15 14 14 14 15 15 15 15 15
22 22 22 23 23 22 20 18 18 18 18 18 18 18 18 18 18 19 19 19 19 19 19 19 19 18 18 18 18 17 17 17 17 16 16 16 16 15 15 15 14 14 14 14 14 14 14 14 15
22 22 23 22 22 21 20 18 18 18 18 18 18 18 18 18 18 18 19 19 19 19 19 19 19 18 18 18 18 17 17 16 16 16 16 16 15 15 15 14 14 14 14 14 14 14 14 14 14
24 23 23 23 22 21 20 19 18 18 18 18 17 18 18 18 18 18 18 18 19 18 19 19 19 18 18 18 17 17 17 16 16 16 15 15 15 15 14 14 14 14 13 13 13 13 13 14 14
24 23 22 22 22 21 19 19 19 18 18 18 18 18 18 18 18 18 18 18 18 19 19 19 19 18 18 18 17 17 16 16 16 15 15 15 15 14 14 14 13 13 13 13 13 13 13 13 13
24 23 23 22 21 21 20 19 19 18 18 18 18 18 18 18 18 18 18 18 19 19 19 19 19 18 18 17 17 17 16 16 15 15 15 15 14 14 14 14 13 13 13 13 13 12 13 13 13
23 24 24 23 20 18 19 18 19 18 18 18 18 18 19 19 19 19 19 19 19 19 19 19 18 18 18 17 17 17 16 16 15 15 15 14 14 14 13 13 13 13 13 13 12 12 12 12 12
24 24 23 21 19 18 18 18 18 18 18 18 19 19 19 20 19 19 19 20 20 19 19 19 18 18 18 17 17 16 16 15 15 15 14 14 14 14 13 13 13 13 13 12 12 12 12 12 12
24 22 20 18 17 18 18 18 18 18 19 19 19 20 20 20 20 20 20 20 20 19 19 19 19 18 18 17 17 16 16 15 15 15 14 14 14 14 13 13 13 13 13 12 12 12 12 12 11
23 20 19 19 17 18 18 19 18 20 20 20 20 20 21 21 21 20 20 20 20 20 19 19 19 19 18 17 17 16 16 15 15 15 14 14 14 13 13 13 13 13 12 12 12 12 12 11 11
23 21 20 20 19 18 18 18 19 21 22 22 22 21 21 21 21 21 21 21 21 20 20 19 19 19 18 17 17 16 16 16 15 15 14 14 13 13 13 13 12 12 12 12 12 12 12 11 11
24 22 20 18 18 18 18 18 20 22 21 21 21 21 21 22 22 22 22 21 21 21 20 20 19 19 18 17 17 16 16 16 15 15 14 14 14 13 13 12 12 12 12 12 12 11 11 11 11
23 22 18 18 18 18 19 19 19 21 21 21 20 21 22 22 22 22 22 22 21 21 21 20 20 19 18 18 17 17 16 16 15 15 15 14 14 13 13 13 12 12 12 12 11 11 11 11 11
23 21 19 17 18 18 18 19 20 20 20 20 21 22 23 23 23 23 23 22 22 21 21 20 20 19 18 18 17 17 17 16 16 15 15 14 14 13 13 13 12 12 12 12 11 11 11 11 11
23 22 19 19 19 18 18 19 22 21 21 21 22 23 24 24 24 23 23 22 22 21 21 20 20 19 19 18 18 17 17 16 16 16 15 14 14 13 13 13 12 12 12 11 11 11 11 11 11
Wind_Speed
10 7 2 0 1 2 2 3 1 7 7 6 4 3 6 5 5 7 6 16 19 15 16 18 19 19 19 19 19 18 18 18 17 17 16 16 15 14 13 12 12 12 11 11 11 10 10 10 9
8 5 2 1 1 1 3 3 3 6 4 6 6 6 7 9 10 12 9 17 18 16 16 17 20 20 20 19 19 18 18 17 17 16 16 15 14 13 12 12 11 11 10 10 10 9 9 9 8
6 4 2 1 2 4 3 3 3 4 7 8 5 5 5 9 12 7 12 18 15 14 16 19 20 20 20 19 19 18 18 17 16 16 15 14 13 12 11 10 10 10 9 9 9 8 8 7 7
3 2 1 1 5 5 5 4 2 2 8 9 4 4 4 6 8 14 20 18 17 12 15 19 21 20 20 19 18 18 17 16 15 14 13 12 12 11 10 9 9 9 8 7 7 7 7 6 5
2 3 1 3 5 4 4 6 3 8 4 8 8 6 6 6 20 22 20 19 17 12 14 18 20 20 20 19 18 17 16 15 14 13 12 11 10 9 9 8 8 8 7 6 6 6 6 5 4
2 2 0 4 4 1 3 8 10 12 9 6 7 5 4 8 19 19 18 16 16 15 13 17 20 20 19 18 18 17 16 14 13 12 11 10 8 7 7 7 6 7 7 6 6 6 5 5 4
3 1 3 5 4 2 3 8 10 11 11 5 2 3 2 6 11 15 15 15 13 14 12 13 16 17 18 17 17 15 15 14 12 11 9 8 7 6 5 5 5 5 6 6 6 6 6 6 5
5 2 4 5 5 2 4 7 8 9 8 6 5 4 3 4 8 13 14 13 12 10 9 10 12 13 14 15 15 15 13 12 11 9 7 6 4 4 4 5 5 5 5 5 6 6 7 7 7
2 1 5 5 3 2 6 7 5 4 6 4 3 3 6 8 11 13 13 11 10 11 8 8 9 11 12 13 13 13 12 10 9 7 6 5 4 3 3 3 4 4 4 4 5 5 6 6 7
5 4 7 4 0 6 9 8 6 6 7 5 5 7 6 9 12 13 13 12 11 11 9 8 8 9 10 10 11 9 8 8 8 7 6 6 6 5 4 2 1 1 1 1 2 3 5 5 5
5 6 6 2 4 9 10 8 6 9 7 10 14 12 8 8 9 10 10 11 12 11 10 8 8 9 8 7 9 7 7 8 8 8 8 9 8 7 6 4 3 2 1 1 2 1 2 3 3
3 4 2 2 5 8 9 8 6 3 5 8 9 10 8 6 7 8 8 10 11 11 10 9 9 8 8 8 7 7 7 7 7 9 10 9 6 5 4 4 4 4 2 2 2 1 2 2 2
1 0 3 5 9 12 13 10 8 4 5 6 5 2 3 4 6 6 7 8 11 12 10 9 10 9 7 7 6 7 7 7 8 9 10 10 6 3 3 3 4 4 3 2 2 1 2 2 2
2 1 2 6 8 7 13 8 6 4 5 6 3 0 1 2 5 7 9 8 10 11 10 9 9 8 8 6 5 6 7 8 9 9 9 10 8 5 3 3 3 4 4 2 1 1 1 1 1
3 4 3 3 5 5 10 7 3 4 5 6 4 3 2 2 4 8 9 9 10 11 10 9 9 7 7 7 6 7 8 9 8 8 9 9 8 7 5 3 3 4 6 5 4 3 3 2 2
4 4 3 2 3 4 6 4 4 5 6 7 4 4 3 3 4 7 10 9 9 10 9 9 9 8 8 6 6 6 8 9 8 9 9 9 8 8 6 3 3 5 7 5 2 3 3 3 3
4 2 3 2 2 3 5 3 4 5 5 6 5 4 5 5 5 8 10 11 10 9 9 8 8 8 7 6 5 6 7 7 8 8 8 8 8 8 7 4 4 6 5 4 3 3 2 3 4
6 3 1 1 1 5 5 3 5 6 6 6 7 7 7 8 6 8 10 10 9 8 9 9 8 7 7 6 5 4 5 4 6 6 7 8 7 7 7 5 5 6 4 4 4 3 3 2 3
7 3 2 1 1 4 4 5 6 6 6 7 7 8 8 8 7 8 10 10 9 8 9 9 8 6 6 4 4 4 2 2 2 3 6 7 6 7 6 4 4 4 4 4 4 3 4 4 4
4 4 2 0 2 3 3 3 5 7 8 8 8 9 9 7 9 10 10 9 9 9 9 8 8 7 6 4 4 3 3 2 2 2 4 6 6 7 6 4 3 3 4 5 5 4 3 3 4
2 4 4 4 2 3 2 1 2 4 3 5 7 8 9 12 13 12 12 10 10 9 10 10 8 8 7 6 4 4 4 3 3 2 1 2 5 6 6 5 4 3 3 3 3 3 3 3 3
1 4 6 7 5 1 1 2 4 4 4 7 8 9 10 11 12 12 12 12 12 11 9 9 9 8 7 6 6 5 4 3 2 2 2 2 3 4 5 5 5 3 2 2 1 2 2 2 2
4 4 4 4 5 3 2 0 6 3 5 9 10 11 12 12 14 15 15 15 13 11 10 9 9 8 7 7 7 7 5 4 2 2 2 0 1 1 5 6 5 3 2 1 1 2 2 1 0
7 6 6 5 5 3 3 0 5 5 8 9 10 11 12 12 14 14 13 12 11 10 10 9 10 8 7 8 8 8 7 6 4 2 1 1 1 1 3 6 4 3 2 2 1 0 0 0 1
4 5 5 6 5 3 4 1 8 8 7 10 12 13 12 13 13 13 13 12 12 12 12 11 11 9 8 8 8 8 8 7 5 3 2 1 0 1 2 3 3 2 3 3 2 1 1 1 2
3 7 6 3 3 4 3 3 8 8 5 8 10 11 12 13 14 15 15 14 13 14 13 12 12 10 9 9 8 8 8 5 4 5 4 4 3 3 3 3 3 3 3 3 2 2 3 2 3
2 2 6 6 3 0 4 5 8 2 3 6 8 10 13 15 15 15 14 14 14 14 14 14 13 11 10 10 9 8 8 7 6 5 4 3 3 3 4 3 3 3 3 3 3 3 4 3 4
4 4 6 5 4 2 4 5 5 5 6 6 8 11 13 14 14 14 14 15 14 13 12 12 13 12 10 10 9 8 8 7 7 5 5 5 4 3 3 3 3 4 4 4 4 4 5 5 5
1 2 5 4 5 6 4 7 8 12 11 10 12 13 14 15 16 15 14 13 13 12 12 12 11 10 10 10 8 9 8 7 7 6 6 5 4 5 5 4 4 5 5 5 5 6 6 6 6
2 4 6 4 3 5 5 8 8 13 13 13 13 13 13 15 15 14 14 13 12 13 13 13 12 11 11 10 9 9 8 7 7 7 6 6 6 6 6 5 5 5 6 5 5 6 6 6 7
Wind_Direction
178 169 169 90 50 36 285 254 282 331 333 349 356 119 123 89 123 133 119 133 132 132 132 129 128 130 131 131 129 127 126 125 124 125 124 123 122 120 118 117 116 114 111 108 106 104 102 99 96
160 170 168 58 104 63 282 280 326 317 342 7 12 61 75 68 86 109 117 132 131 129 129 128 127 128 130 130 130 129 129 128 128 128 129 129 128 126 125 124 122 119 117 114 112 110 108 104 99
174 188 139 122 195 190 226 257 244 294 349 350 341 2 52 104 115 116 133 136 128 125 128 130 127 127 128 128 128 129 129 129 130 131 132 132 131 130 129 129 129 126 125 124 121 118 115 113 107
165 129 47 179 244 231 194 209 251 22 2 1 13 23 33 97 115 131 138 135 127 125 129 131 129 128 129 129 128 128 129 130 131 133 134 136 137 136 136 135 133 133 132 133 131 129 127 125 119
123 115 189 270 257 237 193 157 119 78 39 15 32 56 31 56 119 133 139 137 132 131 133 134 132 132 131 131 131 130 131 132 133 135 137 139 139 141 143 143 143 144 144 143 146 143 142 142 143
104 125 154 280 281 293 141 136 122 97 87 46 18 30 39 112 130 139 140 138 137 138 137 138 137 136 135 134 133 134 134 135 137 138 140 141 143 147 150 153 156 158 159 160 163 167 168 170 176
160 165 249 278 305 360 119 121 117 119 119 122 118 7 54 118 137 141 137 136 137 139 139 139 142 141 139 138 137 137 138 139 139 140 142 146 151 157 164 170 171 172 172 176 178 185 192 197 203
174 108 307 307 322 14 113 110 113 118 127 148 163 152 173 147 131 136 132 133 135 139 141 140 139 139 139 140 141 141 141 141 140 139 138 137 142 155 171 186 188 186 189 192 195 198 203 209 216
156 82 272 273 298 93 127 126 116 99 113 140 181 176 178 130 123 133 131 132 141 145 148 143 139 139 141 143 145 144 141 139 136 133 130 120 107 113 132 153 177 186 197 206 209 213 214 219 223
152 184 245 242 238 125 124 123 136 130 123 131 156 169 173 130 128 138 143 149 152 154 156 151 148 148 149 146 138 136 129 128 123 115 108 99 92 90 90 98 129 169 203 228 230 234 232 228 226
186 203 249 270 113 121 123 122 139 143 147 168 169 172 177 147 138 142 151 153 151 149 143 142 146 148 142 131 135 126 118 117 111 104 97 87 79 70 62 44 18 5 2 10 339 297 257 236 223
205 239 207 118 113 112 120 128 117 132 161 172 175 172 173 149 148 146 147 143 137 131 126 128 130 128 128 127 125 123 118 114 109 99 92 86 74 62 51 38 22 18 21 21 16 328 276 266 247
15 226 104 107 102 113 112 115 118 118 129 143 167 188 155 151 144 140 142 136 128 124 124 125 123 122 123 119 124 123 123 121 116 105 98 95 85 68 47 35 28 27 33 25 12 344 290 278 281
296 336 89 105 103 112 112 111 107 151 130 124 131 262 225 176 150 137 131 128 128 127 127 125 122 123 121 118 118 123 127 121 114 111 109 102 94 80 60 40 32 21 14 5 13 7 335 316 312
332 8 17 102 107 134 111 90 128 162 149 145 156 192 145 197 144 138 143 143 138 132 129 129 127 120 115 116 121 126 127 123 120 120 112 103 93 78 69 58 31 9 12 15 24 23 28 11 359
3 15 344 327 115 148 104 126 180 184 158 160 169 176 167 201 175 154 147 141 140 138 138 138 130 122 119 120 120 126 127 126 129 125 114 106 97 83 71 58 25 18 28 30 35 31 23 8 356
354 328 292 314 100 113 91 132 204 193 169 167 166 187 187 191 191 169 152 147 149 147 140 130 127 128 126 122 116 116 119 125 136 132 123 114 104 88 79 65 38 36 37 28 26 35 30 4 344
255 251 292 305 50 90 92 149 194 194 187 186 177 178 178 187 190 164 151 150 146 145 138 134 132 131 123 109 96 90 94 111 140 141 137 127 113 93 86 72 46 46 42 23 16 16 14 5 338
225 186 209 238 130 91 131 175 194 197 189 189 192 183 185 188 188 163 155 153 147 146 142 141 140 143 131 117 113 113 121 128 143 158 149 141 126 105 98 84 62 52 47 29 17 16 11 359 359
184 154 185 212 148 131 167 198 184 194 196 194 193 191 188 186 170 167 166 164 162 160 156 152 152 152 144 139 143 147 141 133 143 148 146 153 141 131 126 114 97 69 51 32 28 34 25 357 19
142 167 185 178 133 69 86 341 216 214 198 196 195 195 189 182 175 174 169 170 169 168 170 167 165 158 153 145 121 91 73 62 65 98 153 185 167 157 145 136 121 94 77 49 36 49 62 14 354
194 200 160 145 125 359 59 288 271 215 214 205 203 199 194 184 178 178 176 180 182 181 178 171 168 163 158 143 132 130 130 132 161 173 192 221 197 186 168 149 134 115 96 70 38 72 72 68 7
170 138 98 111 120 74 14 95 287 186 215 216 207 202 195 189 182 183 184 187 188 182 179 174 165 165 162 150 142 132 133 150 155 130 140 264 306 236 173 151 142 131 120 113 76 56 52 82 103
131 87 58 52 73 49 295 187 277 216 208 205 204 199 194 189 187 188 188 183 183 181 177 171 166 169 165 155 148 147 152 157 150 144 140 335 347 30 143 148 152 158 161 172 184 198 349 307 267
108 91 24 6 20 280 282 256 256 249 220 193 192 193 192 189 188 188 188 185 185 182 180 175 170 172 169 159 157 159 161 162 165 177 171 158 127 127 168 159 171 184 200 207 203 213 257 259 259
172 138 158 197 209 273 307 265 266 275 221 187 183 184 189 192 192 193 193 189 187 185 182 176 175 174 170 164 167 167 163 155 158 163 164 171 182 188 182 179 190 206 220 226 209 220 245 236 243
109 160 163 129 109 2 292 293 301 301 148 166 176 185 193 195 195 195 193 190 188 185 183 179 175 173 172 171 170 171 169 166 172 177 173 175 180 181 171 179 197 224 232 235 229 236 248 251 250
142 146 87 102 145 220 278 264 244 231 205 193 191 196 201 197 197 195 192 190 187 183 180 174 172 172 173 172 174 177 179 180 181 179 183 189 199 192 188 209 225 240 246 245 235 240 246 247 254
87 91 105 119 158 160 221 259 223 211 205 201 204 202 200 198 197 193 189 184 178 172 170 170 170 167 170 172 173 169 178 182 180 185 197 199 202 201 207 223 234 241 246 247 236 239 243 243 253
165 165 137 146 217 173 182 259 244 204 203 201 205 204 202 198 194 187 181 174 169 170 172 173 173 172 176 174 172 176 180 180 182 193 202 201 204 210 214 220 227 237 240 239 234 243 243 237 243
Height
1532 1534 1535 1537 1538 1543 1542 1532 1524 1523 1522 1519 1516 1513 1513 1515 1520 1530 1528 1530 1534 1536 1540 1543 1545 1547 1548 1549 1551 1552 1553 1554 1555 1555 1556 1557 1558 1558 1559 1560 1560 1561 1562 1562 1562 1563 1563 1563 1564
1532 1534 1536 1537 1541 1551 1543 1529 1524 1524 1525 1522 1518 1515 1514 1517 1520 1524 1528 1532 1535 1537 1541 1543 1546 1547 1549 1550 1551 1553 1554 1555 1555 1556 1557 1557 1558 1559 1559 1560 1561 1561 1562 1563 1563 1563 1564 1564 1565
1532 1534 1537 1538 1541 1545 1539 1528 1524 1524 1525 1523 1522 1518 1518 1521 1523 1526 1530 1533 1536 1539 1542 1544 1546 1548 1550 1551 1552 1553 1554 1555 1556 1557 1557 1558 1559 1559 1560 1561 1561 1562 1563 1563 1564 1564 1565 1565 1566
1532 1535 1537 1540 1540 1531 1526 1524 1522 1525 1526 1524 1523 1523 1522 1525 1525 1527 1531 1535 1537 1540 1543 1545 1547 1549 1550 1552 1553 1554 1555 1556 1557 1557 1558 1558 1559 1559 1560 1561 1562 1562 1563 1563 1564 1565 1565 1566 1566
1532 1534 1538 1541 1534 1524 1521 1522 1524 1525 1531 1528 1526 1527 1526 1528 1528 1530 1533 1536 1538 1541 1544 1546 1548 1549 1551 1552 1553 1554 1555 1556 1557 1557 1558 1559 1559 1560 1560 1561 1562 1562 1563 1564 1564 1565 1566 1566 1567
1532 1532 1541 1542 1530 1521 1521 1523 1525 1527 1531 1532 1531 1530 1532 1532 1531 1533 1535 1537 1540 1542 1544 1546 1549 1550 1551 1552 1554 1555 1556 1557 1557 1558 1559 1559 1559 1560 1561 1561 1562 1562 1563 1563 1564 1565 1566 1566 1567
1531 1532 1537 1532 1527 1522 1522 1524 1527 1529 1530 1530 1532 1533 1533 1536 1535 1536 1537 1539 1541 1543 1545 1547 1549 1551 1552 1553 1554 1556 1556 1557 1558 1558 1559 1559 1560 1560 1561 1561 1562 1562 1562 1563 1563 1564 1565 1566 1567
1527 1530 1533 1531 1526 1524 1523 1525 1528 1528 1529 1530 1530 1532 1532 1536 1537 1538 1539 1541 1543 1545 1546 1548 1550 1551 1553 1554 1555 1556 1557 1557 1558 1558 1559 1559 1560 1560 1560 1561 1561 1561 1561 1562 1562 1563 1564 1565 1566
1526 1533 1537 1529 1523 1523 1523 1525 1529 1529 1529 1529 1529 1530 1530 1534 1536 1539 1540 1542 1543 1545 1547 1549 1550 1552 1553 1554 1555 1556 1557 1558 1558 1559 1559 1559 1559 1559 1560 1560 1560 1560 1560 1560 1561 1562 1563 1563 1564
1522 1533 1527 1518 1516 1518 1521 1524 1527 1529 1529 1529 1527 1528 1531 1533 1535 1538 1540 1542 1543 1545 1547 1549 1550 1552 1553 1554 1555 1556 1557 1558 1558 1559 1559 1559 1559 1559 1559 1559 1559 1559 1559 1559 1559 1560 1561 1561 1562
1517 1522 1516 1514 1514 1515 1519 1523 1525 1526 1527 1525 1523 1525 1529 1533 1536 1538 1541 1542 1543 1545 1547 1549 1550 1552 1553 1555 1555 1556 1557 1557 1558 1558 1558 1558 1558 1558 1558 1558 1557 1557 1557 1557 1557 1558 1559 1559 1560
1514 1513 1513 1514 1513 1515 1517 1521 1524 1525 1524 1524 1525 1525 1527 1533 1536 1538 1540 1542 1544 1545 1547 1549 1551 1552 1553 1555 1555 1556 1556 1557 1557 1558 1558 1558 1557 1557 1557 1556 1555 1555 1555 1555 1555 1556 1556 1557 1558
1512 1512 1512 1513 1514 1515 1517 1520 1522 1526 1525 1527 1529 1531 1531 1534 1536 1539 1541 1543 1544 1545 1547 1550 1551 1552 1554 1554 1555 1556 1556 1557 1557 1557 1557 1557 1556 1556 1555 1554 1554 1554 1553 1553 1553 1553 1554 1555 1555
1512 1511 1511 1513 1513 1516 1517 1522 1524 1527 1528 1529 1530 1532 1534 1534 1535 1537 1539 1542 1544 1545 1547 1550 1551 1552 1554 1554 1555 1555 1556 1556 1556 1557 1557 1556 1555 1554 1553 1552 1552 1552 1551 1551 1552 1552 1552 1552 1552
1510 1511 1511 1512 1512 1516 1517 1526 1527 1527 1528 1528 1530 1532 1533 1533 1535 1536 1538 1541 1544 1545 1548 1550 1551 1552 1553 1554 1555 1555 1556 1556 1556 1556 1556 1555 1554 1553 1552 1551 1551 1550 1550 1550 1550 1550 1550 1550 1550
1511 1516 1521 1514 1513 1515 1519 1531 1528 1528 1527 1528 1528 1530 1531 1533 1535 1536 1538 1541 1544 1545 1547 1549 1551 1552 1553 1554 1555 1555 1555 1556 1556 1555 1555 1554 1553 1552 1551 1550 1549 1549 1549 1548 1548 1548 1548 1548 1548
1520 1525 1523 1516 1512 1513 1519 1529 1526 1525 1526 1526 1526 1528 1529 1532 1534 1536 1538 1541 1544 1545 1547 1549 1551 1552 1553 1554 1554 1555 1555 1555 1555 1555 1554 1554 1552 1551 1550 1549 1548 1548 1547 1547 1546 1546 1546 1546 1546
1525 1523 1521 1519 1514 1513 1519 1525 1524 1522 1524 1525 1526 1527 1528 1530 1532 1535 1537 1540 1543 1545 1547 1548 1550 1552 1553 1554 1554 1555 1555 1555 1554 1554 1554 1553 1552 1551 1549 1548 1547 1547 1546 1546 1545 1545 1545 1544 1544
1511 1517 1521 1516 1512 1515 1519 1521 1522 1522 1523 1524 1526 1526 1526 1528 1532 1535 1537 1540 1542 1544 1546 1547 1549 1551 1552 1553 1553 1554 1554 1554 1554 1553 1553 1552 1551 1550 1549 1548 1547 1546 1545 1544 1544 1544 1543 1543 1542
1508 1517 1519 1517 1513 1515 1520 1521 1520 1521 1522 1522 1523 1524 1526 1529 1531 1534 1536 1538 1540 1543 1545 1546 1548 1550 1551 1552 1553 1553 1553 1553 1553 1552 1551 1551 1550 1549 1548 1547 1546 1545 1544 1544 1543 1543 1542 1542 1542
1509 1514 1515 1517 1516 1516 1521 1526 1523 1520 1520 1520 1521 1523 1524 1526 1528 1531 1534 1537 1539 1541 1543 1545 1547 1549 1550 1550 1551 1552 1552 1551 1551 1551 1550 1550 1549 1548 1548 1547 1546 1545 1544 1543 1543 1542 1542 1541 1541
1514 1505 1506 1512 1522 1531 1527 1539 1524 1520 1520 1519 1519 1521 1522 1525 1527 1529 1532 1535 1537 1539 1541 1544 1546 1547 1548 1549 1549 1550 1550 1550 1549 1549 1549 1548 1548 1547 1547 1546 1545 1544 1544 1543 1542 1541 1541 1540 1540
1505 1503 1507 1514 1524 1533 1531 1537 1530 1520 1521 1517 1516 1517 1519 1522 1524 1527 1529 1532 1535 1537 1540 1542 1544 1545 1546 1547 1547 1547 1547 1548 1547 1547 1547 1547 1546 1546 1545 1545 1544 1544 1543 1542 1541 1540 1539 1539 1539
1499 1508 1516 1523 1531 1545 1537 1537 1531 1520 1514 1512 1512 1514 1516 1519 1522 1525 1528 1531 1534 1536 1538 1540 1541 1543 1544 1545 1545 1545 1545 1545 1545 1545 1545 1544 1544 1544 1544 1543 1543 1542 1542 1541 1540 1539 1538 1538 1537
1501 1519 1538 1541 1550 1548 1532 1531 1526 1505 1502 1504 1507 1510 1513 1516 1519 1523 1526 1528 1531 1533 1535 1537 1539 1540 1542 1543 1543 1543 1543 1542 1542 1542 1542 1542 1542 1542 1542 1542 1542 1541 1540 1539 1538 1538 1537 1536 1535
1502 1513 1536 1547 1552 1546 1532 1533 1516 1499 1497 1499 1502 1506 1511 1514 1516 1519 1522 1525 1527 1530 1532 1534 1536 1538 1539 1540 1540 1541 1540 1540 1540 1540 1540 1540 1540 1540 1540 1540 1539 1539 1538 1537 1536 1536 1535 1534 1533
1501 1509 1512 1531 1541 1547 1537 1526 1509 1497 1498 1499 1502 1505 1507 1510 1512 1515 1518 1521 1524 1526 1528 1531 1533 1535 1537 1537 1538 1538 1538 1538 1538 1538 1538 1538 1538 1538 1538 1538 1537 1536 1536 1535 1534 1533 1532 1532 1531
1495 1502 1518 1532 1547 1550 1540 1532 1522 1504 1502 1499 1500 1501 1503 1506 1509 1512 1515 1518 1520 1523 1526 1529 1531 1532 1534 1534 1535 1535 1535 1535 1535 1535 1535 1535 1536 1536 1535 1535 1534 1534 1533 1532 1531 1530 1529 1529 1528
1500 1505 1512 1526 1532 1545 1547 1532 1499 1497 1495 1496 1495 1496 1499 1502 1504 1508 1511 1514 1517 1520 1523 1525 1528 1529 1531 1531 1532 1532 1533 1533 1533 1533 1533 1533 1533 1533 1532 1532 1531 1531 1530 1529 1528 1527 1526 1525 1525
1494 1499 1508 1525 1528 1530 1535 1523 1483 1484 1485 1488 1489 1491 1494 1497 1500 1503 1507 1511 1514 1517 1520 1522 1524 1526 1527 1528 1529 1529 1530 1530 1530 1530 1530 1530 1530 1530 1529 1529 1528 1527 1526 1525 1524 1523 1522 1522 1521